Regional Weather Roundup
Issued by NWS

Home | Current Version | Previous Version | Text Only | Print | Product List | Glossary Off
Versions: 1 2 3 4 5 6 7 8 9 10 11 12 13 14 15 16 17 18 19 20 21 22 23 24 25 26 27 28 29 30 31 32 33 34 35 36 37 38 39 40 41 42 43 44 45 46 47 48 49 50

709
ASUS45 KBOI 270510
RWRID

IDAHO REGIONAL WEATHER ROUNDUP
NATIONAL WEATHER SERVICE BOISE ID
1100 PM MDT THU MAY 26 2016

NOTE: "FAIR" INDICATES FEW OR NO CLOUDS BELOW 12000 FEET
WITH NO SIGNIFICANT WEATHER AND/OR OBSTRUCTIONS TO VISIBILITY

IDZ012-014-270600-
SOUTHWEST IDAHO


CITY           SKY/WX    TMP DP  RH WIND       PRES   REMARKS
BOISE          PTCLDY    65  39  38 E3        29.90S
CALDWELL       PTCLDY    63  42  46 SW3       29.89S
MOUNTAIN HOME  PTCLDY    62  48  58 S8        29.91S
$$

IDZ016-017-270600-
SOUTHCENTRAL IDAHO


CITY           SKY/WX    TMP DP  RH WIND       PRES   REMARKS
BURLEY         CLEAR     57  37  47 W12       29.94S
JEROME         CLEAR     56  39  53 SW8       29.95S
TWIN FALLS     CLOUDY    52  40  63 S14       29.96S
$$

IDZ019>023-270600-
SOUTHEAST IDAHO


CITY           SKY/WX    TMP DP  RH WIND       PRES   REMARKS
IDAHO FALLS    CLOUDY    55  41  59 S9        29.94S
POCATELLO      CLEAR     54  38  54 S9        29.95R
REXBURG        CLOUDY    55  40  56 E8        29.95S
$$

IDZ006-010-011-018-031-032-270600-
CENTRAL IDAHO MOUNTAINS


CITY           SKY/WX    TMP DP  RH WIND       PRES   REMARKS
MCCALL         MOCLDY    49  34  56 CALM      29.96F
HAILEY         CLEAR     48  43  81 NW8       30.00R
STANLEY          N/A     43  34  70 SE3       30.03R
SALMON         CLOUDY    61  36  39 SE3       29.91R
CHALLIS        MOCLDY    53  37  54 S9        29.96R
$$

IDZ002-004-006-007-026-270600-
NORTHERN IDAHO


CITY           SKY/WX    TMP DP  RH WIND       PRES   REMARKS
LEWISTON       PTCLDY    57  42  57 S7        29.94S
LOWELL           N/A     56  53  90 CALM      29.98R
COEUR D`ALENE  PTCLDY    57  45  62 SE9       29.90F
MULLAN PASS    CLOUDY    41  38  89 VRB5      30.00S
$$




USA.gov is the U.S. government's official web portal to all federal, state and local government web resources and services.